Flag for Italy Weather past 2 weeks in Bologna, Italy

Now
75 °F

Passing clouds.


Feels Like: 78 °F
Forecast: 56 / 78 °F
Wind: 13 mph from East

Location: Bologna / Borgo Panigale

Current Time: May 29, 2015 at 6:51:18 PM

Latest Report: May 29, 2015 at 5:50 PM


Visibility: N/A

Pressure: 29.92 "Hg

Humidity: 54%

Dew point: 57 °F

Location of BolognaLocation

Historic Weather in Bologna — Graph

°F

Bologna temperature yesterday

Maximum temperature yesterday: 73 °F (at 2:20 PM)
Minimum temperature yesterday: 48 °F (at 6:20 AM)
Average temperature yesterday: 63 °F

Past Weeks' High & Low Weather Summary

 TemperatureHumidityPressure
High82 °F (May 14, 5:20 PM)100% (May 16, 7:50 AM)30.12 "Hg (May 16, 7:50 AM)
Low48 °F (May 21, 3:50 AM)30% (May 19, 3:20 PM)29.65 "Hg (May 15, 3:20 AM)
Average64 °F74%29.91 "Hg
* Reported May 14 5:20 PM — May 29 5:20 PM, Bologna, Weather by CustomWeather, © 2015

Note: Actual official high and low records may vary slightly from our data, if they occured in-between our weather recording intervals... More about our weather records

Advertising

Bologna weather history for previous 24 hours

 ConditionsComfort  
Time TempWeatherWind HumidityBarometerVisibility
5:20 PM
Fri, May 29
75 °FPassing clouds.13 mph54%29.92 "HgN/A
4:50 PM75 °FPassing clouds.14 mph54%29.92 "HgN/A
4:20 PM77 °FPassing clouds.13 mph54%29.92 "HgN/A
3:50 PM77 °FPassing clouds.12 mph54%29.95 "HgN/A
3:20 PM77 °FPassing clouds.12 mph54%29.95 "HgN/A
2:50 PM77 °FPassing clouds.12 mph51%29.95 "HgN/A
2:20 PM75 °FPassing clouds.10 mph54%29.98 "HgN/A
1:50 PM75 °FPassing clouds.9 mph54%29.98 "HgN/A
1:20 PM73 °FPassing clouds.8 mph53%29.98 "HgN/A
12:50 PM73 °FPassing clouds.7 mph53%30.01 "HgN/A
12:20 PM72 °FPassing clouds.7 mph57%30.01 "HgN/A
11:50 AM72 °FPassing clouds.6 mph53%30.01 "HgN/A
11:20 AM72 °FPassing clouds.5 mph61%30.01 "HgN/A
10:50 AM70 °FPassing clouds.3 mph64%30.01 "HgN/A
10:20 AM68 °FSunny.2 mph60%30.04 "Hg10 mi
9:50 AM66 °FSunny.2 mph64%30.04 "Hg10 mi
9:20 AM64 °FSunny.2 mph68%30.04 "Hg10 mi
8:50 AM63 °FPassing clouds.3 mph73%30.04 "HgN/A
8:20 AM61 °FPassing clouds.3 mph77%30.04 "HgN/A
7:50 AM61 °FSunny.2 mph77%30.01 "Hg10 mi
7:20 AM59 °FSunny.3 mph77%30.01 "Hg10 mi
6:50 AM57 °FPassing clouds.5 mph82%30.01 "HgN/A
6:20 AM55 °FClear.5 mph82%30.01 "Hg10 mi
5:50 AM55 °FClear.5 mph82%30.01 "Hg10 mi
5:20 AM55 °FClear.3 mph82%29.98 "Hg10 mi
4:50 AM57 °FClear.7 mph77%29.98 "Hg10 mi
4:20 AM55 °FClear.2 mph82%29.98 "Hg10 mi
3:50 AM55 °FPassing clouds.3 mph88%29.98 "HgN/A
3:20 AM57 °FClear.1 mph82%30.01 "Hg10 mi
2:50 AM57 °FClear.7 mph82%30.01 "Hg10 mi
2:20 AM59 °FClear.7 mph77%30.01 "Hg10 mi
1:50 AM59 °FClear.6 mph82%30.01 "Hg10 mi
12:50 AM59 °FClear.3 mph72%30.01 "Hg10 mi
11:50 PM
Thu, May 28
59 °FPassing clouds.6 mph72%30.01 "HgN/A
11:20 PM57 °FClear.8 mph72%30.01 "Hg10 mi
10:50 PM59 °FClear.7 mph68%30.01 "Hg10 mi
10:20 PM59 °FClear.7 mph72%30.01 "Hg10 mi
9:50 PM61 °FClear.8 mph68%30.01 "Hg10 mi
9:20 PM63 °FSunny.9 mph64%30.01 "Hg10 mi
8:50 PM64 °FSunny.12 mph60%30.01 "Hg10 mi
8:20 PM66 °FSunny.12 mph60%30.01 "Hg10 mi
7:50 PM68 °FSunny.12 mph60%30.01 "Hg10 mi
7:20 PM70 °FSunny.10 mph57%30.01 "Hg10 mi
6:50 PM72 °FPassing clouds.8 mph50%30.01 "HgN/A
6:20 PM72 °FSunny.9 mph50%30.01 "Hg10 mi
Weather by CustomWeather, © 2015

See weather overviewHow to use our weather pages